OMD211 KPHL-KMZJ

Flight info

Callsign OMD211
Flight time 5h 2m
Altitude 38000
Route DCT MXE DCT PENSY J110 AIR J80 MCI J24 SLN J96 GCK J18 FTI J104 TUS DCT
Aircraft A321/M-SDFGHIRW/LB1

Departure

Time 2026-05-07 19:46
Airport Philadelphia International Airport (KPHL)

Arrival

Time 2026-05-08 00:48
Airport Pinal Airpark (KMZJ)
Time Latitude Longitude Altitude Speed Heading
2026-05-07 19:20 39.86697 -75.26808 15 ft 0 kts 255°
2026-05-07 19:38 39.86697 -75.26809 22 ft 1 kts 255°
2026-05-07 19:39 39.86692 -75.26832 22 ft 4 kts 255°
2026-05-07 19:39 39.86676 -75.26888 22 ft 8 kts 237°
2026-05-07 19:39 39.86619 -75.26910 22 ft 10 kts 177°
2026-05-07 19:39 39.86543 -75.26889 22 ft 12 kts 166°
2026-05-07 19:40 39.86455 -75.26860 23 ft 14 kts 166°
2026-05-07 19:40 39.86361 -75.26816 23 ft 15 kts 137°
2026-05-07 19:40 39.86362 -75.26685 23 ft 16 kts 76°
2026-05-07 19:40 39.86392 -75.26536 22 ft 18 kts 75°
2026-05-07 19:41 39.86427 -75.26370 24 ft 20 kts 74°
2026-05-07 19:41 39.86463 -75.26189 22 ft 22 kts 77°
2026-05-07 19:41 39.86501 -75.25995 23 ft 23 kts 71°
2026-05-07 19:41 39.86541 -75.25792 22 ft 24 kts 75°
2026-05-07 19:42 39.86584 -75.25581 24 ft 24 kts 76°
2026-05-07 19:42 39.86625 -75.25364 23 ft 25 kts 76°
2026-05-07 19:42 39.86669 -75.25141 23 ft 26 kts 75°
2026-05-07 19:42 39.86715 -75.24912 25 ft 27 kts 75°
2026-05-07 19:43 39.86763 -75.24676 22 ft 27 kts 75°
2026-05-07 19:43 39.86813 -75.24434 22 ft 28 kts 75°
2026-05-07 19:43 39.86862 -75.24188 22 ft 28 kts 76°
2026-05-07 19:43 39.86911 -75.23938 23 ft 29 kts 75°
2026-05-07 19:44 39.86962 -75.23683 22 ft 29 kts 74°
2026-05-07 19:44 39.86994 -75.23520 22 ft 7 kts 75°
2026-05-07 19:44 39.87003 -75.23445 22 ft 9 kts 105°
2026-05-07 19:44 39.86939 -75.23406 21 ft 12 kts 167°
2026-05-07 19:45 39.86900 -75.23422 21 ft 7 kts 256°
2026-05-07 19:45 39.86861 -75.23622 22 ft 59 kts 256°
2026-05-07 19:45 39.86687 -75.24482 22 ft 134 kts 255°
2026-05-07 19:45 39.86404 -75.25883 176 ft 174 kts 257°
2026-05-07 19:46 39.86096 -75.27379 1093 ft 170 kts 255°
2026-05-07 19:46 39.85740 -75.28864 1836 ft 178 kts 253°
2026-05-07 19:46 39.85335 -75.30497 2147 ft 201 kts 253°
2026-05-07 19:46 39.84938 -75.32353 2464 ft 226 kts 261°
2026-05-07 19:47 39.84703 -75.34490 2945 ft 249 kts 265°
2026-05-07 19:47 39.84874 -75.36759 3729 ft 257 kts 287°
2026-05-07 19:47 39.85383 -75.39002 4727 ft 260 kts 287°
2026-05-07 19:47 39.85902 -75.41266 5699 ft 262 kts 287°
2026-05-07 19:48 39.86423 -75.43544 6691 ft 262 kts 287°
2026-05-07 19:48 39.86945 -75.45815 7685 ft 261 kts 286°
2026-05-07 19:48 39.87462 -75.48069 8767 ft 258 kts 285°
2026-05-07 19:48 39.87972 -75.50291 9858 ft 254 kts 284°
2026-05-07 19:49 39.88483 -75.52527 10499 ft 267 kts 283°
2026-05-07 19:49 39.89032 -75.54956 10771 ft 291 kts 283°
2026-05-07 19:49 39.89623 -75.57573 11112 ft 308 kts 283°
2026-05-07 19:49 39.90241 -75.60285 11820 ft 315 kts 283°
2026-05-07 19:50 39.90871 -75.63043 12606 ft 319 kts 282°
2026-05-07 19:50 39.91494 -75.65828 13420 ft 321 kts 278°
2026-05-07 19:50 39.91777 -75.68697 14132 ft 319 kts 267°
2026-05-07 19:50 39.91732 -75.71591 14850 ft 321 kts 265°
2026-05-07 19:51 39.91673 -75.74504 15581 ft 323 kts 265°
2026-05-07 19:51 39.91612 -75.77400 16316 ft 325 kts 265°
2026-05-07 19:51 39.91547 -75.80365 17063 ft 328 kts 265°
2026-05-07 19:51 39.91484 -75.83347 17805 ft 331 kts 265°
2026-05-07 19:52 39.91421 -75.86356 18487 ft 334 kts 265°
2026-05-07 19:52 39.91358 -75.89384 19157 ft 335 kts 265°
2026-05-07 19:52 39.91294 -75.92422 19854 ft 336 kts 265°
2026-05-07 19:52 39.91229 -75.95465 20552 ft 337 kts 264°
2026-05-07 19:53 39.91166 -75.98513 21227 ft 337 kts 264°
2026-05-07 19:53 39.91102 -76.01577 21886 ft 338 kts 264°
2026-05-07 19:53 39.91035 -76.04642 22530 ft 339 kts 264°
2026-05-07 19:53 39.90965 -76.07719 23164 ft 341 kts 264°
2026-05-07 19:54 39.90892 -76.10814 23718 ft 342 kts 264°
2026-05-07 19:54 39.90822 -76.13910 24214 ft 343 kts 264°
2026-05-07 19:54 39.90753 -76.17018 24729 ft 343 kts 264°
2026-05-07 19:54 39.90730 -76.20135 25207 ft 346 kts 266°
2026-05-07 19:55 39.90817 -76.23274 25711 ft 348 kts 267°
2026-05-07 19:55 39.90968 -76.26426 26193 ft 349 kts 268°
2026-05-07 19:55 39.91143 -76.29587 26677 ft 351 kts 268°
2026-05-07 19:55 39.91314 -76.32721 27137 ft 352 kts 268°
2026-05-07 19:56 39.91475 -76.35909 27589 ft 353 kts 268°
2026-05-07 19:56 39.91622 -76.39105 28036 ft 354 kts 267°
2026-05-07 19:56 39.91757 -76.42315 28468 ft 356 kts 267°
2026-05-07 19:56 39.91887 -76.45547 28907 ft 358 kts 267°
2026-05-07 19:57 39.92018 -76.48792 29357 ft 359 kts 267°
2026-05-07 19:57 39.92151 -76.52050 29808 ft 360 kts 267°
2026-05-07 19:57 39.92285 -76.55292 30317 ft 358 kts 267°
2026-05-07 19:57 39.92416 -76.58517 30807 ft 355 kts 267°
2026-05-07 19:58 39.92543 -76.61720 31264 ft 353 kts 267°
2026-05-07 19:58 39.92668 -76.64912 31718 ft 352 kts 267°
2026-05-07 19:58 39.92792 -76.68091 32167 ft 351 kts 267°
2026-05-07 19:58 39.92914 -76.71262 32612 ft 350 kts 267°
2026-05-07 19:59 39.93037 -76.74424 33052 ft 349 kts 267°
2026-05-07 19:59 39.93160 -76.77577 33482 ft 348 kts 267°
2026-05-07 19:59 39.93281 -76.80718 33902 ft 347 kts 267°
2026-05-07 19:59 39.93401 -76.83857 34248 ft 346 kts 267°
2026-05-07 20:00 39.93518 -76.86990 34561 ft 347 kts 267°
2026-05-07 20:00 39.93636 -76.90133 34867 ft 348 kts 267°
2026-05-07 20:00 39.93756 -76.93279 35171 ft 348 kts 267°
2026-05-07 20:00 39.93874 -76.96435 35479 ft 349 kts 268°
2026-05-07 20:01 39.93990 -76.99593 35788 ft 349 kts 268°
2026-05-07 20:01 39.94106 -77.02758 36069 ft 350 kts 268°
2026-05-07 20:01 39.94222 -77.05924 36364 ft 351 kts 268°
2026-05-07 20:01 39.94339 -77.09100 36656 ft 351 kts 268°
2026-05-07 20:02 39.94456 -77.12280 36929 ft 351 kts 268°
2026-05-07 20:02 39.94571 -77.15463 37205 ft 352 kts 268°
2026-05-07 20:02 39.94683 -77.18651 37461 ft 352 kts 268°
2026-05-07 20:02 39.94793 -77.21837 37720 ft 352 kts 268°
2026-05-07 20:03 39.94901 -77.25036 37868 ft 353 kts 268°
2026-05-07 20:03 39.95011 -77.28217 37897 ft 350 kts 268°
2026-05-07 20:03 39.95229 -77.34502 37904 ft 349 kts 268°
2026-05-07 20:04 39.95438 -77.40826 37901 ft 350 kts 268°
2026-05-07 20:04 39.95645 -77.47157 37898 ft 350 kts 268°
2026-05-07 20:05 39.95849 -77.53497 37892 ft 351 kts 268°
2026-05-07 20:05 39.96045 -77.59860 37899 ft 352 kts 268°
2026-05-07 20:06 39.96209 -77.65161 37898 ft 352 kts 268°
2026-05-07 20:06 39.96401 -77.71544 37903 ft 353 kts 268°
2026-05-07 20:07 39.96591 -77.77955 37907 ft 354 kts 268°
2026-05-07 20:07 39.96775 -77.84372 37908 ft 355 kts 268°
2026-05-07 20:08 39.96964 -77.90805 37914 ft 356 kts 268°
2026-05-07 20:08 39.97166 -77.97247 37922 ft 356 kts 269°
2026-05-07 20:09 39.97358 -78.03706 37919 ft 356 kts 268°
2026-05-07 20:10 39.97616 -78.13350 37924 ft 356 kts 268°
2026-05-07 20:10 39.97782 -78.19852 37925 ft 356 kts 269°
2026-05-07 20:11 39.97945 -78.26261 37921 ft 356 kts 269°
2026-05-07 20:11 39.98107 -78.32713 37930 ft 356 kts 268°
2026-05-07 20:12 39.98269 -78.39161 37930 ft 355 kts 269°
2026-05-07 20:12 39.98429 -78.45599 37934 ft 355 kts 269°
2026-05-07 20:13 39.98584 -78.52023 37938 ft 354 kts 269°
2026-05-07 20:13 39.98738 -78.58442 37932 ft 354 kts 269°
2026-05-07 20:14 39.98879 -78.64860 37932 ft 353 kts 269°
2026-05-07 20:14 39.99018 -78.71258 37931 ft 353 kts 269°
2026-05-07 20:15 39.99159 -78.77645 37928 ft 352 kts 269°
2026-05-07 20:15 39.99292 -78.84027 37932 ft 353 kts 269°
2026-05-07 20:16 39.99423 -78.90423 37936 ft 353 kts 269°
2026-05-07 20:16 39.99554 -78.96809 37936 ft 352 kts 269°
2026-05-07 20:17 39.99679 -79.03202 37939 ft 352 kts 269°
2026-05-07 20:17 39.99801 -79.09590 37939 ft 352 kts 269°
2026-05-07 20:18 39.99915 -79.15938 37949 ft 353 kts 269°
2026-05-07 20:18 40.00025 -79.22334 37948 ft 352 kts 269°
2026-05-07 20:19 40.00134 -79.28729 37953 ft 353 kts 269°
2026-05-07 20:19 40.00242 -79.35128 37947 ft 353 kts 269°
2026-05-07 20:20 40.00345 -79.41525 37950 ft 353 kts 269°
2026-05-07 20:20 40.00446 -79.47925 37951 ft 353 kts 269°
2026-05-07 20:21 40.00536 -79.54338 37965 ft 354 kts 269°
2026-05-07 20:21 40.00628 -79.60753 37950 ft 354 kts 269°
2026-05-07 20:22 40.00719 -79.67174 37961 ft 354 kts 269°
2026-05-07 20:22 40.00804 -79.73587 37956 ft 354 kts 269°
2026-05-07 20:23 40.00881 -79.80000 37961 ft 354 kts 269°
2026-05-07 20:23 40.00959 -79.86367 37958 ft 353 kts 269°
2026-05-07 20:24 40.01038 -79.92774 37975 ft 353 kts 269°
2026-05-07 20:24 40.01119 -79.99177 37962 ft 353 kts 269°
2026-05-07 20:25 40.01182 -80.05575 37973 ft 353 kts 269°
2026-05-07 20:25 40.01245 -80.11968 37976 ft 352 kts 269°
2026-05-07 20:26 40.01299 -80.18348 37989 ft 352 kts 269°
2026-05-07 20:26 40.01353 -80.24731 37978 ft 352 kts 269°
2026-05-07 20:27 40.01404 -80.31110 37986 ft 351 kts 269°
2026-05-07 20:27 40.01455 -80.37472 37986 ft 351 kts 269°
2026-05-07 20:28 40.01507 -80.43825 37976 ft 350 kts 269°
2026-05-07 20:28 40.01555 -80.50134 37977 ft 350 kts 270°
2026-05-07 20:29 40.01587 -80.56473 37974 ft 349 kts 269°
2026-05-07 20:29 40.01620 -80.62807 37960 ft 349 kts 269°
2026-05-07 20:30 40.01651 -80.69138 37962 ft 349 kts 269°
2026-05-07 20:30 40.01676 -80.75466 37965 ft 349 kts 269°
2026-05-07 20:31 40.01700 -80.81786 37977 ft 348 kts 269°
2026-05-07 20:31 40.01659 -80.88105 37970 ft 348 kts 268°
2026-05-07 20:32 40.01557 -80.94411 37968 ft 348 kts 268°
2026-05-07 20:32 40.01457 -81.00712 37978 ft 348 kts 268°
2026-05-07 20:33 40.01364 -81.07015 37983 ft 348 kts 268°
2026-05-07 20:33 40.01268 -81.13321 37985 ft 348 kts 268°
2026-05-07 20:34 40.01168 -81.19625 37991 ft 347 kts 268°
2026-05-07 20:34 40.01068 -81.25886 37994 ft 347 kts 268°
2026-05-07 20:35 40.00952 -81.32187 37992 ft 347 kts 268°
2026-05-07 20:35 40.00832 -81.38484 37988 ft 347 kts 268°
2026-05-07 20:36 40.00699 -81.44777 37990 ft 347 kts 268°
2026-05-07 20:36 40.00567 -81.51068 37991 ft 347 kts 268°
2026-05-07 20:37 40.00442 -81.57362 37991 ft 347 kts 268°
2026-05-07 20:37 40.00316 -81.63662 37994 ft 347 kts 268°
2026-05-07 20:38 40.00186 -81.69960 37995 ft 347 kts 268°
2026-05-07 20:38 40.00053 -81.76257 37994 ft 347 kts 268°
2026-05-07 20:39 39.99913 -81.82520 37993 ft 348 kts 268°
2026-05-07 20:39 39.99769 -81.88830 37996 ft 348 kts 268°
2026-05-07 20:40 39.99621 -81.95137 37993 ft 347 kts 268°
2026-05-07 20:40 39.99477 -82.01424 37989 ft 347 kts 268°
2026-05-07 20:41 39.99329 -82.07717 37996 ft 347 kts 268°
2026-05-07 20:41 39.99173 -82.14006 38004 ft 347 kts 268°
2026-05-07 20:42 39.99010 -82.20306 38015 ft 348 kts 268°
2026-05-07 20:42 39.98853 -82.26608 38014 ft 348 kts 268°
2026-05-07 20:43 39.98689 -82.32908 38013 ft 347 kts 268°
2026-05-07 20:43 39.98515 -82.39202 38017 ft 347 kts 268°
2026-05-07 20:44 39.98344 -82.45449 38015 ft 347 kts 268°
2026-05-07 20:44 39.98170 -82.51736 38013 ft 347 kts 268°
2026-05-07 20:45 39.97993 -82.58010 38012 ft 346 kts 268°
2026-05-07 20:45 39.97810 -82.64286 38012 ft 347 kts 268°
2026-05-07 20:46 39.97627 -82.70563 38023 ft 346 kts 268°
2026-05-07 20:46 39.97441 -82.76839 38024 ft 346 kts 268°
2026-05-07 20:47 39.97248 -82.83112 38022 ft 346 kts 268°
2026-05-07 20:47 39.97051 -82.89378 38021 ft 346 kts 268°
2026-05-07 20:48 39.96853 -82.95636 38024 ft 346 kts 268°
2026-05-07 20:48 39.96652 -83.01894 38022 ft 345 kts 268°
2026-05-07 20:49 39.96491 -83.08148 38032 ft 345 kts 269°
2026-05-07 20:49 39.96389 -83.14399 38032 ft 345 kts 269°
2026-05-07 20:50 39.96281 -83.20649 38036 ft 345 kts 268°
2026-05-07 20:50 39.96090 -83.26858 38040 ft 345 kts 268°
2026-05-07 20:51 39.95859 -83.33100 38053 ft 345 kts 267°
2026-05-07 20:51 39.95636 -83.39345 38055 ft 345 kts 268°
2026-05-07 20:52 39.95412 -83.45588 38055 ft 345 kts 268°
2026-05-07 20:52 39.95190 -83.51827 38053 ft 344 kts 268°
2026-05-07 20:53 39.94960 -83.58062 38051 ft 345 kts 267°
2026-05-07 20:53 39.94732 -83.64298 38053 ft 345 kts 268°
2026-05-07 20:54 39.94508 -83.70550 38052 ft 345 kts 268°
2026-05-07 20:54 39.94275 -83.76802 38056 ft 345 kts 267°
2026-05-07 20:55 39.94038 -83.83052 38049 ft 346 kts 267°
2026-05-07 20:55 39.93799 -83.89262 38047 ft 345 kts 267°
2026-05-07 20:56 39.93552 -83.95517 38044 ft 345 kts 267°
2026-05-07 20:56 39.93297 -84.01773 38042 ft 345 kts 267°
2026-05-07 20:57 39.93042 -84.08011 38038 ft 345 kts 267°
2026-05-07 20:57 39.92788 -84.14256 38051 ft 345 kts 267°
2026-05-07 20:58 39.92534 -84.20453 38050 ft 345 kts 267°
2026-05-07 20:58 39.92271 -84.26688 38050 ft 345 kts 267°
2026-05-07 20:59 39.92007 -84.32926 38047 ft 345 kts 267°
2026-05-07 20:59 39.91786 -84.38107 38051 ft 345 kts 267°
2026-05-07 21:00 39.91513 -84.44340 38051 ft 344 kts 267°
2026-05-07 21:00 39.91237 -84.50571 38054 ft 345 kts 267°
2026-05-07 21:01 39.90960 -84.56804 38055 ft 344 kts 267°
2026-05-07 21:01 39.90678 -84.63030 38062 ft 345 kts 267°
2026-05-07 21:02 39.90399 -84.69262 38062 ft 345 kts 267°
2026-05-07 21:02 39.90110 -84.75499 38059 ft 345 kts 267°
2026-05-07 21:03 39.89819 -84.81735 38059 ft 345 kts 267°
2026-05-07 21:03 39.89521 -84.87970 38067 ft 345 kts 267°
2026-05-07 21:04 39.89224 -84.94164 38065 ft 346 kts 267°
2026-05-07 21:04 39.88921 -85.00413 38060 ft 345 kts 267°
2026-05-07 21:05 39.88615 -85.06655 38049 ft 345 kts 267°
2026-05-07 21:05 39.88306 -85.12889 38046 ft 345 kts 266°
2026-05-07 21:06 39.87995 -85.19120 38043 ft 345 kts 266°
2026-05-07 21:06 39.87681 -85.25345 38045 ft 344 kts 266°
2026-05-07 21:07 39.87364 -85.31560 38037 ft 345 kts 266°
2026-05-07 21:07 39.87042 -85.37788 38032 ft 345 kts 266°
2026-05-07 21:08 39.86712 -85.44012 38037 ft 345 kts 266°
2026-05-07 21:08 39.86384 -85.50244 38035 ft 345 kts 266°
2026-05-07 21:09 39.86056 -85.56433 38040 ft 345 kts 266°
2026-05-07 21:09 39.85718 -85.62671 38049 ft 346 kts 266°
2026-05-07 21:10 39.85380 -85.68910 38034 ft 345 kts 266°
2026-05-07 21:10 39.85039 -85.75139 38030 ft 345 kts 266°
2026-05-07 21:11 39.84693 -85.81372 38032 ft 345 kts 266°
2026-05-07 21:11 39.84166 -85.90728 38032 ft 346 kts 266°
2026-05-07 21:12 39.83819 -85.96970 38041 ft 346 kts 266°
2026-05-07 21:12 39.83463 -86.03207 38043 ft 345 kts 266°
2026-05-07 21:13 39.83103 -86.09442 38041 ft 346 kts 266°
2026-05-07 21:13 39.82740 -86.15646 38018 ft 346 kts 266°
2026-05-07 21:14 39.82367 -86.21899 38031 ft 347 kts 266°
2026-05-07 21:14 39.81994 -86.28163 38022 ft 347 kts 266°
2026-05-07 21:15 39.81614 -86.34421 38029 ft 347 kts 266°
2026-05-07 21:15 39.81555 -86.40691 38023 ft 347 kts 270°
2026-05-07 21:16 39.81692 -86.46974 38026 ft 348 kts 270°
2026-05-07 21:16 39.81823 -86.53269 38029 ft 348 kts 270°
2026-05-07 21:17 39.81950 -86.59571 38038 ft 349 kts 270°
2026-05-07 21:17 39.82077 -86.65845 38059 ft 350 kts 270°
2026-05-07 21:18 39.82200 -86.72169 38041 ft 350 kts 270°
2026-05-07 21:18 39.82310 -86.78497 38046 ft 350 kts 270°
2026-05-07 21:19 39.82420 -86.84836 38047 ft 351 kts 270°
2026-05-07 21:19 39.82534 -86.91175 38049 ft 350 kts 270°
2026-05-07 21:20 39.82646 -86.97508 38047 ft 350 kts 270°
2026-05-07 21:20 39.82746 -87.03842 38045 ft 350 kts 270°
2026-05-07 21:21 39.82840 -87.10186 38048 ft 351 kts 270°
2026-05-07 21:21 39.82936 -87.16525 38041 ft 351 kts 270°
2026-05-07 21:22 39.83028 -87.22872 38058 ft 351 kts 270°
2026-05-07 21:22 39.83118 -87.29170 38048 ft 350 kts 270°
2026-05-07 21:23 39.83207 -87.35510 38040 ft 350 kts 270°
2026-05-07 21:23 39.83290 -87.41845 38039 ft 350 kts 270°
2026-05-07 21:24 39.83375 -87.48175 38045 ft 350 kts 270°
2026-05-07 21:24 39.83454 -87.54499 38039 ft 350 kts 270°
2026-05-07 21:25 39.83520 -87.60821 38046 ft 350 kts 270°
2026-05-07 21:25 39.83584 -87.67145 38046 ft 350 kts 270°
2026-05-07 21:26 39.83653 -87.73474 38035 ft 350 kts 270°
2026-05-07 21:26 39.83713 -87.79772 38037 ft 350 kts 270°
2026-05-07 21:27 39.83769 -87.86110 38035 ft 350 kts 270°
2026-05-07 21:27 39.83821 -87.92446 38033 ft 350 kts 270°
2026-05-07 21:28 39.83873 -87.98793 38047 ft 351 kts 270°
2026-05-07 21:28 39.83929 -88.05139 38036 ft 351 kts 270°
2026-05-07 21:29 39.83980 -88.11482 38037 ft 350 kts 270°
2026-05-07 21:29 39.84020 -88.17819 38050 ft 350 kts 270°
2026-05-07 21:30 39.84053 -88.24113 38034 ft 350 kts 270°
2026-05-07 21:30 39.84087 -88.30456 38038 ft 350 kts 270°
2026-05-07 21:31 39.84122 -88.36801 38051 ft 351 kts 270°
2026-05-07 21:31 39.84149 -88.43153 38048 ft 351 kts 270°
2026-05-07 21:32 39.84171 -88.49510 38035 ft 352 kts 270°
2026-05-07 21:32 39.84194 -88.55872 38029 ft 351 kts 270°
2026-05-07 21:33 39.84215 -88.62234 38013 ft 351 kts 270°
2026-05-07 21:33 39.84230 -88.68592 38008 ft 352 kts 270°
2026-05-07 21:34 39.84232 -88.74950 38011 ft 352 kts 270°
2026-05-07 21:34 39.84240 -88.81317 38008 ft 352 kts 270°
2026-05-07 21:35 39.84242 -88.87633 38003 ft 352 kts 270°
2026-05-07 21:35 39.84239 -88.94001 38009 ft 352 kts 270°
2026-05-07 21:36 39.84238 -89.00358 38008 ft 351 kts 270°
2026-05-07 21:36 39.84232 -89.06725 38008 ft 352 kts 270°
2026-05-07 21:37 39.84219 -89.13092 38004 ft 352 kts 270°
2026-05-07 21:37 39.84201 -89.19481 38010 ft 353 kts 270°
2026-05-07 21:38 39.84184 -89.25854 38016 ft 353 kts 270°
2026-05-07 21:38 39.84168 -89.32204 38011 ft 353 kts 270°
2026-05-07 21:39 39.84142 -89.38593 38007 ft 353 kts 270°
2026-05-07 21:39 39.84105 -89.44992 38002 ft 354 kts 270°
2026-05-07 21:40 39.84070 -89.51394 37999 ft 354 kts 270°
2026-05-07 21:40 39.84038 -89.57800 37997 ft 354 kts 270°
2026-05-07 21:41 39.83996 -89.64209 37994 ft 354 kts 270°
2026-05-07 21:41 39.83724 -89.70617 37998 ft 355 kts 265°
2026-05-07 21:42 39.83169 -89.76964 37996 ft 355 kts 265°
2026-05-07 21:42 39.82609 -89.83385 37997 ft 355 kts 265°
2026-05-07 21:43 39.82043 -89.89768 38001 ft 355 kts 265°
2026-05-07 21:43 39.81478 -89.96109 37994 ft 355 kts 265°
2026-05-07 21:44 39.80907 -90.02488 37993 ft 355 kts 265°
2026-05-07 21:44 39.80330 -90.08871 37990 ft 356 kts 265°
2026-05-07 21:45 39.79750 -90.15257 37988 ft 356 kts 265°
2026-05-07 21:45 39.79162 -90.21643 37989 ft 356 kts 265°
2026-05-07 21:46 39.78566 -90.28030 37990 ft 356 kts 265°
2026-05-07 21:46 39.77978 -90.34411 37988 ft 355 kts 265°
2026-05-07 21:47 39.77384 -90.40792 37991 ft 356 kts 265°
2026-05-07 21:47 39.76778 -90.47182 37987 ft 356 kts 265°
2026-05-07 21:48 39.76182 -90.53526 37995 ft 356 kts 265°
2026-05-07 21:48 39.75578 -90.59913 38001 ft 356 kts 265°
2026-05-07 21:49 39.74967 -90.66299 37997 ft 356 kts 264°
2026-05-07 21:49 39.74355 -90.72682 37996 ft 356 kts 265°
2026-05-07 21:50 39.73740 -90.79071 38004 ft 356 kts 265°
2026-05-07 21:50 39.73123 -90.85454 37999 ft 356 kts 265°
2026-05-07 21:51 39.72501 -90.91845 38004 ft 357 kts 264°
2026-05-07 21:51 39.72186 -90.95037 38277 ft 357 kts 264°
2026-05-07 21:51 39.71870 -90.98233 38292 ft 357 kts 265°
2026-05-07 21:52 39.71233 -91.04619 38298 ft 357 kts 264°
2026-05-07 21:52 39.70594 -91.11018 38290 ft 357 kts 264°
2026-05-07 21:53 39.70064 -91.16335 38292 ft 357 kts 264°
2026-05-07 21:53 39.69430 -91.22725 38266 ft 357 kts 264°
2026-05-07 21:54 39.68786 -91.29121 37999 ft 357 kts 264°
2026-05-07 21:54 39.68140 -91.35503 38006 ft 357 kts 264°
2026-05-07 21:55 39.67488 -91.41884 37998 ft 357 kts 264°
2026-05-07 21:55 39.66832 -91.48273 38005 ft 357 kts 264°
2026-05-07 21:56 39.66174 -91.54652 38002 ft 357 kts 264°
2026-05-07 21:56 39.65503 -91.61035 38001 ft 357 kts 264°
2026-05-07 21:57 39.64838 -91.67372 37999 ft 357 kts 264°
2026-05-07 21:57 39.64167 -91.73752 37998 ft 357 kts 264°
2026-05-07 21:58 39.63498 -91.80139 38000 ft 357 kts 264°
2026-05-07 21:58 39.62827 -91.86522 38004 ft 357 kts 264°
2026-05-07 21:59 39.62148 -91.92908 38004 ft 357 kts 264°
2026-05-07 21:59 39.61460 -91.99290 38003 ft 358 kts 264°
2026-05-07 22:00 39.60765 -92.05682 38003 ft 358 kts 264°
2026-05-07 22:00 39.60069 -92.12077 38003 ft 358 kts 264°
2026-05-07 22:01 39.59377 -92.18475 38007 ft 358 kts 264°
2026-05-07 22:01 39.58682 -92.24870 38007 ft 358 kts 264°
2026-05-07 22:02 39.57975 -92.31266 38005 ft 358 kts 264°
2026-05-07 22:02 39.57263 -92.37665 38002 ft 359 kts 264°
2026-05-07 22:03 39.56548 -92.44060 38005 ft 359 kts 264°
2026-05-07 22:03 39.55833 -92.50456 38010 ft 359 kts 264°
2026-05-07 22:04 39.55119 -92.56814 38004 ft 358 kts 264°
2026-05-07 22:04 39.54401 -92.63214 38010 ft 359 kts 264°
2026-05-07 22:05 39.53675 -92.69610 38009 ft 359 kts 264°
2026-05-07 22:05 39.52939 -92.76001 38011 ft 359 kts 263°
2026-05-07 22:06 39.52209 -92.82389 38007 ft 358 kts 263°
2026-05-07 22:06 39.51472 -92.88770 38006 ft 358 kts 263°
2026-05-07 22:07 39.50727 -92.95156 38004 ft 358 kts 263°
2026-05-07 22:07 39.49980 -93.01535 38007 ft 358 kts 263°
2026-05-07 22:08 39.49237 -93.07914 38004 ft 358 kts 263°
2026-05-07 22:08 39.48491 -93.14287 38003 ft 358 kts 263°
2026-05-07 22:09 39.47735 -93.20659 38001 ft 358 kts 263°
2026-05-07 22:09 39.46982 -93.26985 38002 ft 358 kts 263°
2026-05-07 22:10 39.46224 -93.33342 38000 ft 358 kts 263°
2026-05-07 22:10 39.45463 -93.39705 38000 ft 358 kts 263°
2026-05-07 22:11 39.44697 -93.46064 38001 ft 358 kts 263°
2026-05-07 22:11 39.43928 -93.52421 37998 ft 357 kts 263°
2026-05-07 22:12 39.43156 -93.58770 37995 ft 357 kts 263°
2026-05-07 22:12 39.42380 -93.65110 37997 ft 357 kts 263°
2026-05-07 22:13 39.41600 -93.71444 37998 ft 356 kts 263°
2026-05-07 22:13 39.40815 -93.77769 37996 ft 356 kts 262°
2026-05-07 22:14 39.40029 -93.84096 37995 ft 356 kts 262°
2026-05-07 22:14 39.39243 -93.90423 37984 ft 356 kts 262°
2026-05-07 22:15 39.38450 -93.96746 37976 ft 356 kts 262°
2026-05-07 22:15 39.37660 -94.03074 37982 ft 356 kts 262°
2026-05-07 22:16 39.36871 -94.09344 37980 ft 356 kts 262°
2026-05-07 22:16 39.36068 -94.15653 37983 ft 356 kts 262°
2026-05-07 22:17 39.35264 -94.21957 37982 ft 356 kts 262°
2026-05-07 22:17 39.34455 -94.28264 37978 ft 356 kts 262°
2026-05-07 22:18 39.33238 -94.37728 37977 ft 356 kts 262°
2026-05-07 22:19 39.32427 -94.44029 37982 ft 356 kts 262°
2026-05-07 22:19 39.31601 -94.50332 37979 ft 356 kts 262°
2026-05-07 22:20 39.30774 -94.56629 37964 ft 356 kts 262°
2026-05-07 22:20 39.29952 -94.62931 37965 ft 356 kts 262°
2026-05-07 22:21 39.29119 -94.69227 37957 ft 356 kts 261°
2026-05-07 22:21 39.28287 -94.75517 37960 ft 355 kts 262°
2026-05-07 22:22 39.27571 -94.81826 37968 ft 355 kts 263°
2026-05-07 22:22 39.26899 -94.88102 37971 ft 355 kts 263°
2026-05-07 22:23 39.26201 -94.94412 37971 ft 355 kts 262°
2026-05-07 22:23 39.25482 -95.00714 37972 ft 355 kts 262°
2026-05-07 22:24 39.24759 -95.07014 37969 ft 355 kts 262°
2026-05-07 22:24 39.24033 -95.13305 37966 ft 354 kts 262°
2026-05-07 22:25 39.23309 -95.19551 37961 ft 354 kts 262°
2026-05-07 22:25 39.22573 -95.25881 37961 ft 354 kts 262°
2026-05-07 22:26 39.21848 -95.32121 37953 ft 354 kts 262°
2026-05-07 22:26 39.21114 -95.38404 37955 ft 354 kts 262°
2026-05-07 22:27 39.20372 -95.44682 37949 ft 354 kts 262°
2026-05-07 22:27 39.19619 -95.50972 37938 ft 355 kts 261°
2026-05-07 22:28 39.18867 -95.57263 37946 ft 355 kts 261°
2026-05-07 22:28 39.18111 -95.63558 37951 ft 356 kts 261°
2026-05-07 22:29 39.17357 -95.69853 37944 ft 355 kts 261°
2026-05-07 22:29 39.16601 -95.76140 37947 ft 355 kts 261°
2026-05-07 22:30 39.15838 -95.82424 37952 ft 355 kts 261°
2026-05-07 22:30 39.15080 -95.88674 37948 ft 355 kts 261°
2026-05-07 22:31 39.14313 -95.94944 37949 ft 354 kts 261°
2026-05-07 22:31 39.13537 -96.01211 37949 ft 354 kts 261°
2026-05-07 22:32 39.12758 -96.07476 37944 ft 354 kts 261°
2026-05-07 22:32 39.11986 -96.13740 37943 ft 354 kts 261°
2026-05-07 22:33 39.11213 -96.20005 37944 ft 355 kts 261°
2026-05-07 22:33 39.10425 -96.26274 37938 ft 355 kts 261°
2026-05-07 22:34 39.09632 -96.32549 37930 ft 355 kts 261°
2026-05-07 22:34 39.08844 -96.38783 37931 ft 355 kts 261°
2026-05-07 22:35 39.08047 -96.45069 37926 ft 356 kts 261°
2026-05-07 22:35 39.07248 -96.51371 37924 ft 357 kts 260°
2026-05-07 22:36 39.06434 -96.57674 37918 ft 357 kts 260°
2026-05-07 22:36 39.05620 -96.63966 37915 ft 357 kts 260°
2026-05-07 22:37 39.04812 -96.70252 37905 ft 356 kts 260°
2026-05-07 22:37 39.03995 -96.76531 37902 ft 356 kts 260°
2026-05-07 22:38 39.03173 -96.82807 37907 ft 356 kts 260°
2026-05-07 22:38 39.02350 -96.89044 37913 ft 356 kts 260°
2026-05-07 22:39 39.01523 -96.95323 37908 ft 356 kts 260°
2026-05-07 22:39 39.00698 -97.01604 37913 ft 356 kts 260°
2026-05-07 22:40 38.99862 -97.07891 37906 ft 357 kts 260°
2026-05-07 22:40 38.99023 -97.14182 37920 ft 357 kts 260°
2026-05-07 22:41 38.98185 -97.20481 37918 ft 357 kts 260°
2026-05-07 22:41 38.97338 -97.26780 37917 ft 358 kts 259°
2026-05-07 22:42 38.96486 -97.33094 37913 ft 359 kts 259°
2026-05-07 22:42 38.95628 -97.39412 37919 ft 359 kts 259°
2026-05-07 22:43 38.94766 -97.45732 37910 ft 359 kts 259°
2026-05-07 22:43 38.93911 -97.52017 37921 ft 360 kts 259°
2026-05-07 22:44 38.93038 -97.58353 37919 ft 360 kts 259°
2026-05-07 22:44 38.91773 -97.64557 37918 ft 361 kts 250°
2026-05-07 22:45 38.89924 -97.70531 37924 ft 360 kts 250°
2026-05-07 22:45 38.88092 -97.76507 37924 ft 360 kts 250°
2026-05-07 22:46 38.86566 -97.81470 37923 ft 360 kts 250°
2026-05-07 22:46 38.84722 -97.87437 37926 ft 360 kts 250°
2026-05-07 22:47 38.82875 -97.93400 37912 ft 360 kts 250°
2026-05-07 22:47 38.81029 -97.99367 37916 ft 360 kts 250°
2026-05-07 22:48 38.79170 -98.05336 37913 ft 360 kts 250°
2026-05-07 22:48 38.77308 -98.11300 37918 ft 360 kts 250°
2026-05-07 22:49 38.75447 -98.17262 37905 ft 361 kts 250°
2026-05-07 22:49 38.73583 -98.23224 37910 ft 361 kts 250°
2026-05-07 22:50 38.71715 -98.29187 37905 ft 361 kts 250°
2026-05-07 22:50 38.69836 -98.35144 37908 ft 361 kts 249°
2026-05-07 22:51 38.67955 -98.41109 37909 ft 362 kts 250°
2026-05-07 22:51 38.66069 -98.47073 37911 ft 361 kts 250°
2026-05-07 22:52 38.64185 -98.53040 37903 ft 362 kts 249°
2026-05-07 22:52 38.62294 -98.59003 37912 ft 362 kts 250°
2026-05-07 22:53 38.60409 -98.64934 37909 ft 362 kts 249°
2026-05-07 22:53 38.58510 -98.70902 37927 ft 362 kts 249°
2026-05-07 22:54 38.56607 -98.76864 37928 ft 362 kts 249°
2026-05-07 22:54 38.54694 -98.82823 37937 ft 362 kts 249°
2026-05-07 22:55 38.52787 -98.88778 37929 ft 362 kts 249°
2026-05-07 22:55 38.50877 -98.94740 37939 ft 363 kts 249°
2026-05-07 22:56 38.48957 -99.00699 37931 ft 363 kts 249°
2026-05-07 22:56 38.47034 -99.06657 37938 ft 363 kts 249°
2026-05-07 22:57 38.45103 -99.12615 37932 ft 364 kts 249°
2026-05-07 22:57 38.43166 -99.18582 37927 ft 364 kts 249°
2026-05-07 22:58 38.41235 -99.24552 37926 ft 364 kts 249°
2026-05-07 22:58 38.39294 -99.30528 37927 ft 365 kts 249°
2026-05-07 22:59 38.37346 -99.36508 37929 ft 366 kts 249°
2026-05-07 22:59 38.35401 -99.42451 37936 ft 366 kts 249°
2026-05-07 23:00 38.33442 -99.48434 37939 ft 366 kts 249°
2026-05-07 23:00 38.31483 -99.54414 37938 ft 366 kts 249°
2026-05-07 23:01 38.29527 -99.60384 37932 ft 365 kts 249°
2026-05-07 23:01 38.27559 -99.66348 37928 ft 365 kts 249°
2026-05-07 23:02 38.25589 -99.72305 37922 ft 365 kts 249°
2026-05-07 23:02 38.23622 -99.78261 37936 ft 366 kts 249°
2026-05-07 23:03 38.21651 -99.84223 37933 ft 366 kts 248°
2026-05-07 23:03 38.19680 -99.90140 37938 ft 366 kts 248°
2026-05-07 23:04 38.17693 -99.96092 37938 ft 366 kts 248°
2026-05-07 23:04 38.15703 -100.02051 37929 ft 366 kts 248°
2026-05-07 23:05 38.13717 -100.08012 37925 ft 367 kts 248°
2026-05-07 23:05 38.11724 -100.13979 37925 ft 368 kts 249°
2026-05-07 23:06 38.09719 -100.19962 37927 ft 368 kts 248°
2026-05-07 23:06 38.07697 -100.25941 37923 ft 369 kts 248°
2026-05-07 23:07 38.05683 -100.31929 37929 ft 369 kts 248°
2026-05-07 23:07 38.03655 -100.37917 37933 ft 369 kts 248°
2026-05-07 23:08 38.01642 -100.43866 37937 ft 370 kts 248°
2026-05-07 23:08 37.99617 -100.49856 37933 ft 370 kts 248°
2026-05-07 23:09 37.97581 -100.55845 37939 ft 370 kts 248°
2026-05-07 23:09 37.95533 -100.61837 37938 ft 371 kts 248°
2026-05-07 23:10 37.93483 -100.67839 37941 ft 374 kts 248°
2026-05-07 23:10 37.91223 -100.73918 37944 ft 388 kts 241°
2026-05-07 23:11 37.88413 -100.79771 37939 ft 390 kts 242°
2026-05-07 23:11 37.85596 -100.85654 37940 ft 391 kts 241°
2026-05-07 23:12 37.82763 -100.91529 37937 ft 391 kts 241°
2026-05-07 23:12 37.79942 -100.97369 37927 ft 392 kts 241°
2026-05-07 23:13 37.77092 -101.03249 37926 ft 392 kts 241°
2026-05-07 23:13 37.74242 -101.09132 37928 ft 393 kts 241°
2026-05-07 23:14 37.71385 -101.15025 37942 ft 393 kts 241°
2026-05-07 23:14 37.68524 -101.20922 37940 ft 394 kts 241°
2026-05-07 23:15 37.65653 -101.26817 37950 ft 395 kts 241°
2026-05-07 23:15 37.62772 -101.32712 37943 ft 395 kts 241°
2026-05-07 23:16 37.59894 -101.38603 37945 ft 395 kts 241°
2026-05-07 23:16 37.57012 -101.44499 37931 ft 395 kts 241°
2026-05-07 23:17 37.54120 -101.50395 37933 ft 396 kts 241°
2026-05-07 23:17 37.51220 -101.56293 37939 ft 396 kts 241°
2026-05-07 23:18 37.48312 -101.62191 37943 ft 397 kts 241°
2026-05-07 23:18 37.45399 -101.68091 37942 ft 398 kts 241°
2026-05-07 23:19 37.42497 -101.73962 37949 ft 398 kts 241°
2026-05-07 23:19 37.39572 -101.79871 37937 ft 398 kts 241°
2026-05-07 23:20 37.36649 -101.85784 37936 ft 398 kts 241°
2026-05-07 23:20 37.33714 -101.91694 37926 ft 398 kts 241°
2026-05-07 23:21 37.30773 -101.97593 37936 ft 399 kts 241°
2026-05-07 23:21 37.27828 -102.03503 37939 ft 399 kts 241°
2026-05-07 23:22 37.24883 -102.09407 37943 ft 398 kts 241°
2026-05-07 23:22 37.21935 -102.15294 37932 ft 399 kts 241°
2026-05-07 23:23 37.18980 -102.21189 37929 ft 399 kts 241°
2026-05-07 23:23 37.16024 -102.27073 37913 ft 399 kts 241°
2026-05-07 23:24 37.13057 -102.32965 37922 ft 400 kts 240°
2026-05-07 23:24 37.10107 -102.38813 37918 ft 400 kts 240°
2026-05-07 23:25 37.07129 -102.44698 37916 ft 400 kts 240°
2026-05-07 23:25 37.04149 -102.50588 37916 ft 401 kts 240°
2026-05-07 23:26 37.01163 -102.56479 37920 ft 401 kts 240°
2026-05-07 23:26 36.98174 -102.62381 37918 ft 401 kts 240°
2026-05-07 23:27 36.93674 -102.71242 37934 ft 403 kts 240°
2026-05-07 23:27 36.90663 -102.77153 37938 ft 403 kts 240°
2026-05-07 23:28 36.87644 -102.83063 37934 ft 404 kts 240°
2026-05-07 23:28 36.84634 -102.88940 37941 ft 405 kts 240°
2026-05-07 23:29 36.81602 -102.94855 37955 ft 405 kts 240°
2026-05-07 23:29 36.78571 -103.00771 37952 ft 405 kts 240°
2026-05-07 23:30 36.75529 -103.06690 37977 ft 405 kts 240°
2026-05-07 23:30 36.72484 -103.12601 37986 ft 405 kts 240°
2026-05-07 23:31 36.69430 -103.18512 37995 ft 406 kts 240°
2026-05-07 23:31 36.66374 -103.24428 38007 ft 406 kts 240°
2026-05-07 23:32 36.63311 -103.30345 38013 ft 407 kts 240°
2026-05-07 23:32 36.60235 -103.36265 38016 ft 408 kts 240°
2026-05-07 23:33 36.57154 -103.42191 38016 ft 408 kts 240°
2026-05-07 23:33 36.54065 -103.48116 38011 ft 408 kts 240°
2026-05-07 23:34 36.50983 -103.54053 38008 ft 409 kts 240°
2026-05-07 23:34 36.47915 -103.59946 37997 ft 409 kts 239°
2026-05-07 23:35 36.44807 -103.65870 38002 ft 409 kts 239°
2026-05-07 23:35 36.41696 -103.71791 37998 ft 409 kts 239°
2026-05-07 23:36 36.38590 -103.77710 38002 ft 409 kts 239°
2026-05-07 23:36 36.35478 -103.83631 38004 ft 410 kts 239°
2026-05-07 23:37 36.32356 -103.89557 38007 ft 410 kts 239°
2026-05-07 23:37 36.29758 -103.94475 38001 ft 410 kts 239°
2026-05-07 23:38 36.26634 -104.00392 38002 ft 410 kts 239°
2026-05-07 23:38 36.23502 -104.06308 38000 ft 411 kts 239°
2026-05-07 23:39 36.20367 -104.12221 37999 ft 411 kts 239°
2026-05-07 23:39 36.17223 -104.18138 37987 ft 411 kts 239°
2026-05-07 23:40 36.14075 -104.24056 37992 ft 412 kts 239°
2026-05-07 23:40 36.10916 -104.29973 37984 ft 412 kts 239°
2026-05-07 23:41 36.07750 -104.35893 37984 ft 413 kts 239°
2026-05-07 23:41 36.04581 -104.41815 37981 ft 413 kts 238°
2026-05-07 23:42 36.01429 -104.47695 37978 ft 413 kts 238°
2026-05-07 23:42 35.98250 -104.53621 37972 ft 414 kts 238°
2026-05-07 23:43 35.95065 -104.59540 37982 ft 414 kts 238°
2026-05-07 23:43 35.91873 -104.65456 37978 ft 414 kts 238°
2026-05-07 23:44 35.88681 -104.71371 37970 ft 414 kts 238°
2026-05-07 23:44 35.85491 -104.77286 37960 ft 415 kts 238°
2026-05-07 23:45 35.82285 -104.83203 37985 ft 415 kts 238°
2026-05-07 23:45 35.79073 -104.89116 38005 ft 416 kts 238°
2026-05-07 23:46 35.75870 -104.95003 37982 ft 417 kts 237°
2026-05-07 23:46 35.72602 -105.01005 38067 ft 425 kts 237°
2026-05-07 23:47 35.69300 -105.07069 38089 ft 427 kts 237°
2026-05-07 23:47 35.65968 -105.13118 38094 ft 428 kts 234°
2026-05-07 23:48 35.61952 -105.18534 38099 ft 429 kts 228°
2026-05-07 23:48 35.57860 -105.23876 38091 ft 429 kts 228°
2026-05-07 23:49 35.53766 -105.29225 38055 ft 430 kts 228°
2026-05-07 23:49 35.49699 -105.34532 38025 ft 430 kts 228°
2026-05-07 23:50 35.45599 -105.39860 37995 ft 430 kts 228°
2026-05-07 23:50 35.41487 -105.45204 37979 ft 431 kts 228°
2026-05-07 23:51 35.37375 -105.50545 37977 ft 430 kts 228°
2026-05-07 23:51 35.33253 -105.55869 37991 ft 431 kts 228°
2026-05-07 23:52 35.29128 -105.61196 37995 ft 431 kts 228°
2026-05-07 23:52 35.25008 -105.66520 37995 ft 430 kts 228°
2026-05-07 23:53 35.20890 -105.71836 37990 ft 430 kts 228°
2026-05-07 23:53 35.16799 -105.77108 37997 ft 430 kts 227°
2026-05-07 23:54 35.12670 -105.82405 38003 ft 431 kts 227°
2026-05-07 23:54 35.08534 -105.87705 38009 ft 431 kts 227°
2026-05-07 23:55 35.04397 -105.93003 38008 ft 431 kts 227°
2026-05-07 23:55 35.00257 -105.98293 38011 ft 431 kts 227°
2026-05-07 23:56 34.96111 -106.03590 38010 ft 432 kts 227°
2026-05-07 23:56 34.91956 -106.08893 38015 ft 432 kts 227°
2026-05-07 23:57 34.87797 -106.14189 38014 ft 433 kts 227°
2026-05-07 23:57 34.83632 -106.19475 38014 ft 433 kts 227°
2026-05-07 23:58 34.79465 -106.24756 38009 ft 433 kts 227°
2026-05-07 23:58 34.75325 -106.29997 38010 ft 433 kts 227°
2026-05-07 23:59 34.71156 -106.35273 38005 ft 432 kts 227°
2026-05-07 23:59 34.66986 -106.40541 37998 ft 432 kts 227°
2026-05-08 00:00 34.62816 -106.45797 37989 ft 432 kts 227°
2026-05-08 00:00 34.58649 -106.51046 37982 ft 432 kts 227°
2026-05-08 00:01 34.54475 -106.56294 37972 ft 432 kts 227°
2026-05-08 00:01 34.50307 -106.61526 37962 ft 431 kts 227°
2026-05-08 00:02 34.46167 -106.66720 37958 ft 431 kts 226°
2026-05-08 00:02 34.41992 -106.71944 37943 ft 431 kts 226°
2026-05-08 00:03 34.37812 -106.77157 37947 ft 431 kts 226°
2026-05-08 00:03 34.33627 -106.82369 37962 ft 432 kts 226°
2026-05-08 00:04 34.29417 -106.87549 37984 ft 431 kts 226°
2026-05-08 00:04 34.25192 -106.92691 38007 ft 431 kts 225°
2026-05-08 00:05 34.20964 -106.97822 38019 ft 431 kts 225°
2026-05-08 00:05 34.16741 -107.02960 38025 ft 431 kts 225°
2026-05-08 00:06 34.12515 -107.08103 38028 ft 431 kts 225°
2026-05-08 00:06 34.08283 -107.13229 38017 ft 431 kts 225°
2026-05-08 00:07 34.04051 -107.18356 37992 ft 431 kts 225°
2026-05-08 00:07 33.99818 -107.23484 37981 ft 432 kts 225°
2026-05-08 00:08 33.95571 -107.28613 37962 ft 432 kts 225°
2026-05-08 00:08 33.91346 -107.33702 37942 ft 432 kts 225°
2026-05-08 00:09 33.87089 -107.38820 37944 ft 433 kts 225°
2026-05-08 00:09 33.82834 -107.43939 37942 ft 433 kts 225°
2026-05-08 00:10 33.78573 -107.49063 37936 ft 433 kts 225°
2026-05-08 00:10 33.74308 -107.54172 37933 ft 433 kts 224°
2026-05-08 00:11 33.70041 -107.59275 37942 ft 433 kts 224°
2026-05-08 00:11 33.65780 -107.64375 37948 ft 432 kts 224°
2026-05-08 00:12 33.61531 -107.69446 37923 ft 431 kts 224°
2026-05-08 00:12 33.57276 -107.74515 37924 ft 431 kts 224°
2026-05-08 00:13 33.53042 -107.79552 37928 ft 431 kts 224°
2026-05-08 00:13 33.48773 -107.84614 37933 ft 432 kts 224°
2026-05-08 00:14 33.44500 -107.89676 37944 ft 432 kts 224°
2026-05-08 00:14 33.40214 -107.94753 37944 ft 433 kts 224°
2026-05-08 00:15 33.35928 -107.99830 37945 ft 434 kts 224°
2026-05-08 00:15 33.31628 -108.04912 37951 ft 434 kts 224°
2026-05-08 00:16 33.27360 -108.09943 37949 ft 434 kts 224°
2026-05-08 00:16 33.23061 -108.15005 37946 ft 434 kts 224°
2026-05-08 00:17 33.18758 -108.20066 37943 ft 434 kts 224°
2026-05-08 00:17 33.14446 -108.25126 37940 ft 435 kts 224°
2026-05-08 00:18 33.10127 -108.30188 37934 ft 435 kts 224°
2026-05-08 00:18 33.05805 -108.35244 37930 ft 435 kts 224°
2026-05-08 00:19 33.01483 -108.40300 37918 ft 435 kts 224°
2026-05-08 00:19 32.97162 -108.45350 37914 ft 435 kts 224°
2026-05-08 00:20 32.92840 -108.50388 37910 ft 435 kts 224°
2026-05-08 00:20 32.88510 -108.55415 37895 ft 435 kts 224°
2026-05-08 00:21 32.84186 -108.60444 37894 ft 435 kts 224°
2026-05-08 00:21 32.79858 -108.65471 37888 ft 435 kts 224°
2026-05-08 00:22 32.75553 -108.70455 37879 ft 435 kts 224°
2026-05-08 00:22 32.71214 -108.75477 37878 ft 435 kts 224°
2026-05-08 00:23 32.66870 -108.80493 37878 ft 436 kts 224°
2026-05-08 00:23 32.62522 -108.85505 37883 ft 436 kts 224°
2026-05-08 00:24 32.58168 -108.90518 37900 ft 437 kts 223°
2026-05-08 00:24 32.53805 -108.95532 37887 ft 437 kts 223°
2026-05-08 00:25 32.49444 -109.00549 37888 ft 437 kts 224°
2026-05-08 00:25 32.45081 -109.05562 37865 ft 437 kts 224°
2026-05-08 00:26 32.40706 -109.10571 37853 ft 438 kts 223°
2026-05-08 00:26 32.36325 -109.15583 37851 ft 438 kts 223°
2026-05-08 00:27 32.31934 -109.20600 37857 ft 439 kts 223°
2026-05-08 00:27 32.28093 -109.26118 37856 ft 441 kts 240°
2026-05-08 00:28 32.26878 -109.29489 37834 ft 440 kts 251°
2026-05-08 00:28 32.26253 -109.33002 37570 ft 435 kts 261°
2026-05-08 00:28 32.25928 -109.36491 37318 ft 431 kts 261°
2026-05-08 00:28 32.25590 -109.40005 37067 ft 431 kts 261°
2026-05-08 00:29 32.25242 -109.43522 36805 ft 431 kts 261°
2026-05-08 00:29 32.24886 -109.47043 36553 ft 432 kts 261°
2026-05-08 00:29 32.24527 -109.50570 36308 ft 434 kts 261°
2026-05-08 00:29 32.24167 -109.54112 36063 ft 435 kts 261°
2026-05-08 00:30 32.23805 -109.57666 35818 ft 436 kts 261°
2026-05-08 00:30 32.23441 -109.61226 35581 ft 437 kts 262°
2026-05-08 00:30 32.23079 -109.64791 35347 ft 438 kts 262°
2026-05-08 00:30 32.22714 -109.68368 35074 ft 439 kts 262°
2026-05-08 00:31 32.22346 -109.71972 34271 ft 446 kts 262°
2026-05-08 00:31 32.22099 -109.74388 33740 ft 449 kts 262°
2026-05-08 00:31 32.21725 -109.78049 33119 ft 447 kts 262°
2026-05-08 00:31 32.21355 -109.81678 32567 ft 443 kts 262°
2026-05-08 00:32 32.20982 -109.85287 31956 ft 442 kts 263°
2026-05-08 00:32 32.20610 -109.88876 31358 ft 440 kts 263°
2026-05-08 00:32 32.20236 -109.92458 30728 ft 439 kts 263°
2026-05-08 00:32 32.19862 -109.96036 30084 ft 441 kts 264°
2026-05-08 00:33 32.19485 -109.99641 29342 ft 444 kts 264°
2026-05-08 00:33 32.19105 -110.03276 28654 ft 448 kts 264°
2026-05-08 00:33 32.18724 -110.06933 27921 ft 449 kts 264°
2026-05-08 00:33 32.18340 -110.10585 27226 ft 446 kts 263°
2026-05-08 00:34 32.17951 -110.14219 26462 ft 446 kts 263°
2026-05-08 00:34 32.17562 -110.17842 25741 ft 444 kts 263°
2026-05-08 00:34 32.17177 -110.21458 25014 ft 443 kts 263°
2026-05-08 00:34 32.16795 -110.25055 24325 ft 441 kts 263°
2026-05-08 00:35 32.16418 -110.28595 23586 ft 440 kts 262°
2026-05-08 00:35 32.16032 -110.32175 22787 ft 438 kts 262°
2026-05-08 00:35 32.15647 -110.35724 22063 ft 434 kts 262°
2026-05-08 00:35 32.15268 -110.39242 21378 ft 430 kts 263°
2026-05-08 00:36 32.14893 -110.42734 20668 ft 427 kts 263°
2026-05-08 00:36 32.14519 -110.46198 20017 ft 424 kts 262°
2026-05-08 00:36 32.14149 -110.49641 19378 ft 422 kts 263°
2026-05-08 00:36 32.13781 -110.53058 18777 ft 419 kts 263°
2026-05-08 00:37 32.13412 -110.56454 18166 ft 416 kts 263°
2026-05-08 00:37 32.13041 -110.59826 17515 ft 413 kts 263°
2026-05-08 00:37 32.12672 -110.63168 16845 ft 409 kts 263°
2026-05-08 00:38 32.11943 -110.69763 15496 ft 402 kts 263°
2026-05-08 00:38 32.11585 -110.73027 14799 ft 400 kts 263°
2026-05-08 00:38 32.11229 -110.76269 14103 ft 397 kts 263°
2026-05-08 00:38 32.10873 -110.79485 13382 ft 394 kts 263°
2026-05-08 00:39 32.10520 -110.82676 12634 ft 391 kts 263°
2026-05-08 00:39 32.10195 -110.85837 11925 ft 385 kts 266°
2026-05-08 00:39 32.10363 -110.88915 11244 ft 380 kts 282°
2026-05-08 00:39 32.11227 -110.91816 10689 ft 370 kts 299°
2026-05-08 00:40 32.12144 -110.93503 10621 ft 354 kts 309°
2026-05-08 00:40 32.12739 -110.94336 10581 ft 346 kts 314°
2026-05-08 00:40 32.14454 -110.96142 10369 ft 315 kts 323°
2026-05-08 00:40 32.16100 -110.97720 9874 ft 296 kts 323°
2026-05-08 00:41 32.17702 -110.99245 9746 ft 299 kts 323°
2026-05-08 00:41 32.19316 -111.00774 9624 ft 298 kts 323°
2026-05-08 00:41 32.20916 -111.02296 9484 ft 291 kts 323°
2026-05-08 00:41 32.22459 -111.03766 9348 ft 280 kts 323°
2026-05-08 00:42 32.23850 -111.05094 9071 ft 275 kts 323°
2026-05-08 00:42 32.25387 -111.06561 8678 ft 274 kts 323°
2026-05-08 00:42 32.26872 -111.07974 8294 ft 274 kts 323°
2026-05-08 00:42 32.28356 -111.09388 7920 ft 274 kts 323°
2026-05-08 00:43 32.29834 -111.10804 7517 ft 273 kts 322°
2026-05-08 00:43 32.31301 -111.12203 7127 ft 266 kts 322°
2026-05-08 00:43 32.32709 -111.13550 6767 ft 255 kts 321°
2026-05-08 00:43 32.34058 -111.14839 6431 ft 245 kts 321°
2026-05-08 00:44 32.35352 -111.16079 6075 ft 235 kts 322°
2026-05-08 00:44 32.36592 -111.17265 5734 ft 226 kts 321°
2026-05-08 00:44 32.37791 -111.18413 5415 ft 218 kts 322°
2026-05-08 00:44 32.38957 -111.19527 5109 ft 214 kts 321°
2026-05-08 00:45 32.40104 -111.20623 4837 ft 209 kts 322°
2026-05-08 00:45 32.41229 -111.21697 4507 ft 206 kts 321°
2026-05-08 00:45 32.42335 -111.22753 4206 ft 203 kts 321°
2026-05-08 00:45 32.43407 -111.23777 3919 ft 192 kts 321°
2026-05-08 00:46 32.44406 -111.24741 3668 ft 176 kts 319°
2026-05-08 00:46 32.45231 -111.25665 3448 ft 149 kts 316°
2026-05-08 00:46 32.45929 -111.26494 3254 ft 136 kts 313°
2026-05-08 00:46 32.46581 -111.27273 3073 ft 131 kts 315°
2026-05-08 00:47 32.47224 -111.28038 2880 ft 130 kts 313°
2026-05-08 00:47 32.47858 -111.28796 2690 ft 129 kts 310°
2026-05-08 00:47 32.48478 -111.29571 2472 ft 128 kts 309°
2026-05-08 00:47 32.49085 -111.30342 2231 ft 128 kts 310°
2026-05-08 00:48 32.49729 -111.31065 2088 ft 127 kts 311°
2026-05-08 00:48 32.50357 -111.31802 1930 ft 127 kts 313°
2026-05-08 00:48 32.50906 -111.32444 1892 ft 76 kts 316°
2026-05-08 00:48 32.51148 -111.32724 1896 ft 38 kts 315°
2026-05-08 00:49 32.51288 -111.32895 1889 ft 14 kts 313°
2026-05-08 00:49 32.51359 -111.32885 1888 ft 12 kts 43°
2026-05-08 00:49 32.51408 -111.32813 1891 ft 8 kts 92°
2026-05-08 00:49 32.51363 -111.32745 1894 ft 12 kts 135°
2026-05-08 00:50 32.51296 -111.32665 1894 ft 15 kts 134°
2026-05-08 00:50 32.51216 -111.32568 1896 ft 18 kts 134°
2026-05-08 00:50 32.51118 -111.32449 1887 ft 21 kts 135°
2026-05-08 00:50 32.51008 -111.32318 1891 ft 24 kts 135°
2026-05-08 00:51 32.50932 -111.32220 1895 ft 7 kts 109°
2026-05-08 00:51 32.50955 -111.32170 1893 ft 7 kts 44°
2026-05-08 00:51 32.50975 -111.32146 1893 ft 3 kts 44°
2026-05-08 00:51 32.50987 -111.32132 1886 ft 0 kts 45°